| time (UTC) | temp F | wind direction | speed MPH | gust MPH | rain 1hr in | rain 24hr in | rain mn in | humidity % | barometer mb |
| 20260902005300 | 67 | 295 | 0.0 | 3.0 | 0.00 | 0.00 | 0.00 | 88 | 1018.2 |
| 20260902004737 | 68 | 295 | 2.0 | 3.0 | 0.00 | 0.00 | 0.00 | 88 | 1018.2 |
| 20260902004235 | 67 | 292 | 1.0 | 3.0 | 0.00 | 0.00 | 0.00 | 88 | 1018.2 |
| 20260902003730 | 68 | 292 | 0.0 | 0.0 | 0.00 | 0.00 | 0.00 | 88 | 1018.2 |
| 20260902003257 | 68 | 292 | 0.0 | 0.0 | 0.00 | 0.00 | 0.00 | 88 | 1018.2 |
| 20260902002728 | 68 | 292 | 0.0 | 0.0 | 0.00 | 0.00 | 0.00 | 88 | 1018.1 |
| 20260902002252 | 68 | 292 | 0.0 | 0.0 | 0.00 | 0.00 | 0.00 | 88 | 1018.2 |
| 20260902001758 | 68 | 292 | 0.0 | 2.0 | 0.00 | 0.00 | 0.00 | 88 | 1018.2 |
| 20260902001241 | 68 | 292 | 0.0 | 2.0 | 0.00 | 0.00 | 0.00 | 88 | 1018.2 |
| 20260902000722 | 68 | 292 | 0.0 | 2.0 | 0.00 | 0.00 | 0.00 | 87 | 1018.2 |
| 20260902000226 | 68 | 292 | 1.0 | 3.0 | 0.00 | 0.00 | 0.00 | 87 | 1018.2 |
| 20260901235738 | 68 | 292 | 1.0 | 3.0 | 0.00 | 0.00 | 0.00 | 87 | 1018.2 |
| 20260901235246 | 68 | 292 | 0.0 | 1.0 | 0.00 | 0.00 | 0.00 | 87 | 1018.3 |
| 20260901234737 | 68 | 292 | 0.0 | 3.0 | 0.00 | 0.00 | 0.00 | 87 | 1018.3 |
| 20260901234246 | 68 | 292 | 2.0 | 3.0 | 0.00 | 0.00 | 0.00 | 87 | 1018.2 |
| 20260901233734 | 68 | 292 | 1.0 | 3.0 | 0.00 | 0.00 | 0.00 | 87 | 1018.3 |
| 20260901233227 | 68 | 292 | 2.0 | 3.0 | 0.00 | 0.00 | 0.00 | 87 | 1018.2 |
| 20260901232811 | 68 | 292 | 1.0 | 2.0 | 0.00 | 0.00 | 0.00 | 87 | 1018.1 |
| 20260901232234 | 68 | 292 | 0.0 | 0.0 | 0.00 | 0.00 | 0.00 | 87 | 1018.1 |
| 20260901231735 | 68 | 292 | 0.0 | 2.0 | 0.00 | 0.00 | 0.00 | 87 | 1018.1 |
| 20260901231300 | 69 | 292 | 1.0 | 2.0 | 0.00 | 0.00 | 0.00 | 87 | 1018.2 |
| 20260901230743 | 69 | 292 | 1.0 | 3.0 | 0.00 | 0.00 | 0.00 | 87 | 1018.2 |
| 20260901230229 | 69 | 292 | 2.0 | 4.0 | 0.00 | 0.00 | 0.00 | 87 | 1018.1 |
| 20260901225738 | 69 | 292 | 1.0 | 4.0 | 0.00 | 0.00 | 0.00 | 87 | 1018.3 |
| 20260901225242 | 69 | 291 | 2.0 | 3.0 | 0.00 | 0.00 | 0.00 | 87 | 1018.3 |
| 20260901224724 | 69 | 355 | 1.0 | 3.0 | 0.00 | 0.00 | 0.00 | 87 | 1018.1 |
| 20260901224250 | 69 | 355 | 1.0 | 3.0 | 0.00 | 0.00 | 0.00 | 87 | 1018.1 |
| 20260901223742 | 69 | 355 | 0.0 | 2.0 | 0.00 | 0.00 | 0.00 | 87 | 1018.3 |
| 20260901223246 | 69 | 355 | 0.0 | 1.0 | 0.00 | 0.00 | 0.00 | 87 | 1018.2 |
| 20260901222739 | 69 | 355 | 0.0 | 1.0 | 0.00 | 0.00 | 0.00 | 87 | 1018.2 |
| 20260901222243 | 69 | 355 | 0.0 | 3.0 | 0.00 | 0.00 | 0.00 | 87 | 1018.2 |
| 20260901221726 | 69 | 355 | 1.0 | 3.0 | 0.00 | 0.00 | 0.00 | 87 | 1018.2 |
| 20260901221239 | 69 | 355 | 0.0 | 0.0 | 0.00 | 0.00 | 0.00 | 87 | 1018.1 |
| 20260901220752 | 69 | 355 | 0.0 | 0.0 | 0.00 | 0.00 | 0.00 | 87 | 1018.0 |
| 20260901220237 | 69 | 355 | 0.0 | 0.0 | 0.00 | 0.00 | 0.00 | 86 | 1018.1 |
| 20260901215734 | 69 | 355 | 0.0 | 0.0 | 0.00 | 0.00 | 0.00 | 86 | 1018.0 |
| 20260901215223 | 69 | 355 | 0.0 | 0.0 | 0.00 | 0.00 | 0.00 | 86 | 1018.0 |
| 20260901214746 | 69 | 355 | 0.0 | 0.0 | 0.00 | 0.00 | 0.00 | 86 | 1017.9 |
| 20260901214238 | 69 | 355 | 0.0 | 0.0 | 0.00 | 0.00 | 0.00 | 86 | 1018.0 |
| 20260901213736 | 69 | 355 | 0.0 | 0.0 | 0.00 | 0.00 | 0.00 | 87 | 1018.0 |
| 20260901213236 | 69 | 355 | 0.0 | 0.0 | 0.00 | 0.00 | 0.00 | 86 | 1018.1 |
| 20260901212734 | 69 | 355 | 0.0 | 0.0 | 0.00 | 0.00 | 0.00 | 86 | 1018.1 |
| 20260901212240 | 69 | 355 | 0.0 | 0.0 | 0.00 | 0.00 | 0.00 | 86 | 1018.1 |
| 20260901211743 | 69 | 355 | 0.0 | 0.0 | 0.00 | 0.00 | 0.00 | 86 | 1017.9 |
| 20260901211226 | 69 | 355 | 0.0 | 0.0 | 0.00 | 0.00 | 0.00 | 86 | 1017.9 |
| 20260901210755 | 69 | 355 | 0.0 | 0.0 | 0.00 | 0.00 | 0.00 | 86 | 1017.9 |
| 20260901210230 | 69 | 355 | 0.0 | 0.0 | 0.00 | 0.00 | 0.00 | 86 | 1017.9 |
| 20260901205746 | 69 | 355 | 0.0 | 0.0 | 0.00 | 0.00 | 0.00 | 85 | 1018.0 |
| 20260901205229 | 69 | 355 | 0.0 | 0.0 | 0.00 | 0.00 | 0.00 | 85 | 1018.0 |
| 20260901204739 | 69 | 355 | 0.0 | 0.0 | 0.00 | 0.00 | 0.00 | 85 | 1017.9 |
| 20260901204251 | 69 | 355 | 0.0 | 0.0 | 0.00 | 0.00 | 0.00 | 85 | 1017.9 |
| 20260901203738 | 69 | 355 | 0.0 | 0.0 | 0.00 | 0.00 | 0.00 | 85 | 1017.9 |
| 20260901203239 | 69 | 355 | 0.0 | 0.0 | 0.00 | 0.00 | 0.00 | 85 | 1017.9 |
| 20260901202733 | 70 | 355 | 0.0 | 0.0 | 0.00 | 0.00 | 0.00 | 84 | 1018.0 |
| 20260901202309 | 70 | 355 | 0.0 | 0.0 | 0.00 | 0.00 | 0.00 | 84 | 1017.9 |
| 20260901201739 | 70 | 355 | 0.0 | 0.0 | 0.00 | 0.00 | 0.00 | 84 | 1017.8 |
| 20260901201241 | 70 | 355 | 0.0 | 0.0 | 0.00 | 0.00 | 0.00 | 84 | 1017.9 |
| 20260901200752 | 70 | 355 | 0.0 | 0.0 | 0.00 | 0.00 | 0.00 | 84 | 1017.9 |
| 20260901200235 | 70 | 355 | 0.0 | 0.0 | 0.00 | 0.00 | 0.00 | 83 | 1017.8 |
| 20260901195727 | 70 | 355 | 0.0 | 0.0 | 0.00 | 0.00 | 0.00 | 83 | 1017.8 |
| 20260901195247 | 70 | 355 | 0.0 | 0.0 | 0.00 | 0.00 | 0.00 | 83 | 1017.8 |
| 20260901194742 | 71 | 355 | 0.0 | 0.0 | 0.00 | 0.00 | 0.00 | 83 | 1017.7 |
| 20260901194252 | 71 | 355 | 0.0 | 0.0 | 0.00 | 0.00 | 0.00 | 83 | 1017.6 |
| 20260901193739 | 71 | 355 | 0.0 | 0.0 | 0.00 | 0.00 | 0.00 | 83 | 1017.7 |
| 20260901193248 | 71 | 355 | 0.0 | 0.0 | 0.00 | 0.00 | 0.00 | 82 | 1017.6 |
| 20260901192742 | 71 | 355 | 0.0 | 0.0 | 0.00 | 0.00 | 0.00 | 82 | 1017.6 |
| 20260901192238 | 71 | 91 | 0.0 | 0.0 | 0.00 | 0.00 | 0.00 | 82 | 1017.6 |
| 20260901191730 | 72 | 91 | 0.0 | 0.0 | 0.00 | 0.00 | 0.00 | 81 | 1017.5 |
| 20260901191235 | 72 | 91 | 0.0 | 0.0 | 0.00 | 0.00 | 0.00 | 81 | 1017.5 |
| 20260901190726 | 72 | 91 | 0.0 | 0.0 | 0.00 | 0.00 | 0.00 | 81 | 1017.4 |
| 20260901190249 | 72 | 91 | 0.0 | 0.0 | 0.00 | 0.00 | 0.00 | 81 | 1017.3 |
| 20260901185735 | 73 | 91 | 0.0 | 0.0 | 0.00 | 0.00 | 0.00 | 81 | 1017.2 |
| 20260901185224 | 73 | 91 | 0.0 | 0.0 | 0.00 | 0.00 | 0.00 | 80 | 1017.1 |
| 20260901184811 | 73 | 91 | 0.0 | 0.0 | 0.00 | 0.00 | 0.00 | 79 | 1017.1 |
| 20260901184237 | 74 | 91 | 0.0 | 0.0 | 0.00 | 0.00 | 0.00 | 79 | 1016.9 |
| 20260901183747 | 74 | 91 | 0.0 | 0.0 | 0.00 | 0.00 | 0.00 | 79 | 1016.9 |
| 20260901183236 | 74 | 91 | 0.0 | 0.0 | 0.00 | 0.00 | 0.00 | 78 | 1017.0 |
| 20260901182735 | 75 | 91 | 0.0 | 0.0 | 0.00 | 0.00 | 0.00 | 78 | 1017.0 |
| 20260901182229 | 75 | 91 | 0.0 | 0.0 | 0.00 | 0.00 | 0.00 | 77 | 1017.0 |
| 20260901181747 | 75 | 91 | 0.0 | 0.0 | 0.00 | 0.00 | 0.00 | 77 | 1016.9 |
| 20260901181240 | 76 | 91 | 0.0 | 0.0 | 0.00 | 0.00 | 0.00 | 76 | 1017.0 |
| 20260901180750 | 76 | 91 | 0.0 | 0.0 | 0.00 | 0.00 | 0.00 | 76 | 1016.8 |
| 20260901180243 | 77 | 91 | 0.0 | 0.0 | 0.00 | 0.00 | 0.00 | 75 | 1016.8 |
| 20260901175805 | 77 | 91 | 0.0 | 0.0 | 0.00 | 0.00 | 0.00 | 74 | 1016.8 |
| 20260901175229 | 78 | 91 | 0.0 | 0.0 | 0.00 | 0.00 | 0.00 | 73 | 1016.8 |
| 20260901174752 | 78 | 91 | 0.0 | 0.0 | 0.00 | 0.00 | 0.00 | 72 | 1016.7 |
| 20260901174301 | 79 | 91 | 0.0 | 0.0 | 0.00 | 0.00 | 0.00 | 69 | 1016.7 |
| 20260901173749 | 79 | 92 | 0.0 | 0.0 | 0.00 | 0.00 | 0.00 | 68 | 1016.6 |
| 20260901173304 | 79 | 91 | 0.0 | 0.0 | 0.00 | 0.00 | 0.00 | 68 | 1016.5 |
| 20260901172809 | 80 | 91 | 0.0 | 0.0 | 0.00 | 0.00 | 0.00 | 68 | 1016.5 |
| 20260901172241 | 80 | 91 | 0.0 | 0.0 | 0.00 | 0.00 | 0.00 | 67 | 1016.5 |
| 20260901171748 | 80 | 91 | 0.0 | 0.0 | 0.00 | 0.00 | 0.00 | 69 | 1016.4 |
| 20260901171259 | 81 | 91 | 0.0 | 0.0 | 0.00 | 0.00 | 0.00 | 67 | 1016.4 |
| 20260901170729 | 81 | 91 | 0.0 | 0.0 | 0.00 | 0.00 | 0.00 | 65 | 1016.4 |
| 20260901170241 | 81 | 91 | 0.0 | 0.0 | 0.00 | 0.00 | 0.00 | 63 | 1016.4 |
| 20260901165741 | 81 | 92 | 0.0 | 3.0 | 0.00 | 0.00 | 0.00 | 61 | 1016.5 |
| 20260901165252 | 82 | 91 | 1.0 | 3.0 | 0.00 | 0.00 | 0.00 | 60 | 1016.5 |
| 20260901164735 | 82 | 118 | 1.0 | 3.0 | 0.00 | 0.00 | 0.00 | 60 | 1016.4 |
| 20260901164227 | 83 | 127 | 0.0 | 5.0 | 0.00 | 0.00 | 0.00 | 60 | 1016.5 |
| 20260901163732 | 83 | 127 | 3.0 | 5.0 | 0.00 | 0.00 | 0.00 | 59 | 1016.5 |
| 20260901163224 | 83 | 111 | 1.0 | 3.0 | 0.00 | 0.00 | 0.00 | 57 | 1016.5 |
| 20260901162745 | 83 | 111 | 0.0 | 4.0 | 0.00 | 0.00 | 0.00 | 58 | 1016.6 |
| 20260901162243 | 83 | 112 | 2.0 | 4.0 | 0.00 | 0.00 | 0.00 | 59 | 1016.5 |
| 20260901161748 | 83 | 124 | 3.0 | 7.0 | 0.00 | 0.00 | 0.00 | 57 | 1016.6 |
| 20260901161238 | 84 | 157 | 4.0 | 8.0 | 0.00 | 0.00 | 0.00 | 56 | 1016.6 |
| 20260901160738 | 84 | 154 | 3.0 | 6.0 | 0.00 | 0.00 | 0.00 | 56 | 1016.6 |
| 20260901160230 | 84 | 123 | 3.0 | 6.0 | 0.00 | 0.00 | 0.00 | 56 | 1016.6 |
| 20260901155737 | 84 | 177 | 1.0 | 8.0 | 0.00 | 0.00 | 0.00 | 55 | 1016.6 |
| 20260901155329 | 84 | 150 | 3.0 | 8.0 | 0.00 | 0.00 | 0.00 | 54 | 1016.7 |
| 20260901154831 | 85 | 133 | 2.0 | 4.0 | 0.00 | 0.00 | 0.00 | 54 | 1016.6 |
| 20260901154248 | 85 | 195 | 2.0 | 5.0 | 0.00 | 0.00 | 0.00 | 56 | 1016.7 |
| 20260901153739 | 85 | 203 | 4.0 | 6.0 | 0.00 | 0.00 | 0.00 | 55 | 1016.7 |
| 20260901153239 | 85 | 197 | 4.0 | 8.0 | 0.00 | 0.00 | 0.00 | 54 | 1016.7 |
| 20260901152735 | 85 | 132 | 5.0 | 9.0 | 0.00 | 0.00 | 0.00 | 55 | 1016.7 |
| 20260901152235 | 85 | 225 | 2.0 | 9.0 | 0.00 | 0.00 | 0.00 | 56 | 1016.7 |
| 20260901151739 | 84 | 184 | 5.0 | 7.0 | 0.00 | 0.00 | 0.00 | 57 | 1016.7 |
| 20260901151244 | 84 | 171 | 0.0 | 7.0 | 0.00 | 0.00 | 0.00 | 56 | 1016.7 |
| 20260901150724 | 84 | 155 | 3.0 | 9.0 | 0.00 | 0.00 | 0.00 | 58 | 1016.7 |
| 20260901150304 | 84 | 149 | 4.0 | 9.0 | 0.00 | 0.00 | 0.00 | 56 | 1016.8 |
| 20260901145746 | 85 | 128 | 4.0 | 10.0 | 0.00 | 0.00 | 0.00 | 56 | 1016.8 |
| 20260901145226 | 85 | 142 | 4.0 | 10.0 | 0.00 | 0.00 | 0.00 | 56 | 1016.8 |
| 20260901144735 | 85 | 208 | 2.0 | 10.0 | 0.00 | 0.00 | 0.00 | 55 | 1016.9 |
| 20260901144225 | 84 | 148 | 6.0 | 10.0 | 0.00 | 0.00 | 0.00 | 55 | 1016.9 |
| 20260901143749 | 84 | 163 | 2.0 | 7.0 | 0.00 | 0.00 | 0.00 | 58 | 1016.8 |
| 20260901143241 | 84 | 209 | 5.0 | 7.0 | 0.00 | 0.00 | 0.00 | 57 | 1016.9 |
| 20260901142739 | 84 | 144 | 1.0 | 8.0 | 0.00 | 0.00 | 0.00 | 57 | 1016.9 |
| 20260901142239 | 84 | 262 | 2.0 | 9.0 | 0.00 | 0.00 | 0.00 | 56 | 1017.0 |
| 20260901141724 | 85 | 166 | 4.0 | 12.0 | 0.00 | 0.00 | 0.00 | 57 | 1017.0 |
| 20260901141237 | 85 | 132 | 5.0 | 12.0 | 0.00 | 0.00 | 0.00 | 57 | 1017.0 |
| 20260901140738 | 84 | 155 | 2.0 | 8.0 | 0.00 | 0.00 | 0.00 | 60 | 1017.0 |
| 20260901140232 | 83 | 115 | 2.0 | 8.0 | 0.00 | 0.00 | 0.00 | 57 | 1017.0 |
| 20260901135737 | 84 | 196 | 5.0 | 8.0 | 0.00 | 0.00 | 0.00 | 57 | 1017.0 |
| 20260901135237 | 84 | 213 | 1.0 | 8.0 | 0.00 | 0.00 | 0.00 | 57 | 1017.1 |
| 20260901134726 | 84 | 141 | 3.0 | 9.0 | 0.00 | 0.00 | 0.00 | 57 | 1017.0 |
| 20260901134248 | 84 | 163 | 4.0 | 9.0 | 0.00 | 0.00 | 0.00 | 58 | 1017.1 |
| 20260901133739 | 84 | 195 | 2.0 | 6.0 | 0.00 | 0.00 | 0.00 | 58 | 1017.2 |
| 20260901133238 | 83 | 153 | 3.0 | 8.0 | 0.00 | 0.00 | 0.00 | 59 | 1017.3 |
| 20260901132749 | 84 | 133 | 5.0 | 8.0 | 0.00 | 0.00 | 0.00 | 55 | 1017.3 |
| 20260901132238 | 83 | 183 | 2.0 | 9.0 | 0.00 | 0.00 | 0.00 | 61 | 1017.4 |
| 20260901131743 | 83 | 133 | 6.0 | 11.0 | 0.00 | 0.00 | 0.00 | 57 | 1017.4 |
| 20260901131227 | 83 | 111 | 7.0 | 11.0 | 0.00 | 0.00 | 0.00 | 59 | 1017.5 |
| 20260901130758 | 83 | 148 | 7.0 | 11.0 | 0.00 | 0.00 | 0.00 | 58 | 1017.6 |
| 20260901130252 | 83 | 175 | 7.0 | 11.0 | 0.00 | 0.00 | 0.00 | 60 | 1017.6 |
| 20260901125800 | 83 | 203 | 3.0 | 11.0 | 0.00 | 0.00 | 0.00 | 61 | 1017.6 |
| 20260901125245 | 83 | 176 | 5.0 | 10.0 | 0.00 | 0.00 | 0.00 | 60 | 1017.7 |
| 20260901124738 | 83 | 192 | 4.0 | 9.0 | 0.00 | 0.00 | 0.00 | 60 | 1017.7 |
| 20260901124224 | 83 | 137 | 5.0 | 9.0 | 0.00 | 0.00 | 0.00 | 61 | 1017.7 |
| 20260901123746 | 83 | 85 | 2.0 | 6.0 | 0.00 | 0.00 | 0.00 | 59 | 1017.7 |
| 20260901123311 | 82 | 188 | 3.0 | 5.0 | 0.00 | 0.00 | 0.00 | 62 | 1017.8 |
| 20260901122759 | 81 | 234 | 0.0 | 11.0 | 0.00 | 0.00 | 0.00 | 62 | 1017.8 |
| 20260901122245 | 81 | 153 | 6.0 | 11.0 | 0.00 | 0.00 | 0.00 | 62 | 1017.9 |
| 20260901121747 | 81 | 117 | 4.0 | 7.0 | 0.00 | 0.00 | 0.00 | 64 | 1018.0 |
| 20260901121245 | 82 | 82 | 3.0 | 8.0 | 0.00 | 0.00 | 0.00 | 62 | 1018.0 |
| 20260901120742 | 82 | 80 | 2.0 | 11.0 | 0.00 | 0.00 | 0.00 | 62 | 1018.0 |
| 20260901120308 | 82 | 127 | 8.0 | 11.0 | 0.00 | 0.00 | 0.00 | 62 | 1018.1 |
| 20260901115739 | 82 | 196 | 2.0 | 6.0 | 0.00 | 0.00 | 0.00 | 61 | 1018.1 |
| 20260901115248 | 81 | 139 | 3.0 | 10.0 | 0.00 | 0.00 | 0.00 | 62 | 1018.1 |
| 20260901114749 | 81 | 169 | 7.0 | 10.0 | 0.00 | 0.00 | 0.00 | 64 | 1018.1 |
| 20260901114229 | 81 | 145 | 4.0 | 7.0 | 0.00 | 0.00 | 0.00 | 64 | 1018.1 |
| 20260901113809 | 80 | 146 | 2.0 | 8.0 | 0.00 | 0.00 | 0.00 | 63 | 1018.2 |
| 20260901113247 | 80 | 156 | 2.0 | 7.0 | 0.00 | 0.00 | 0.00 | 63 | 1018.1 |
| 20260901112758 | 81 | 192 | 1.0 | 4.0 | 0.00 | 0.00 | 0.00 | 61 | 1018.3 |
| 20260901112244 | 82 | 212 | 2.0 | 7.0 | 0.00 | 0.00 | 0.00 | 62 | 1018.2 |
| 20260901111736 | 82 | 150 | 4.0 | 9.0 | 0.00 | 0.00 | 0.00 | 62 | 1018.2 |
| 20260901111228 | 81 | 138 | 5.0 | 10.0 | 0.00 | 0.00 | 0.00 | 64 | 1018.2 |
| 20260901110745 | 81 | 121 | 4.0 | 11.0 | 0.00 | 0.00 | 0.00 | 64 | 1018.2 |
| 20260901110238 | 81 | 119 | 5.0 | 11.0 | 0.00 | 0.00 | 0.00 | 60 | 1018.2 |
| 20260901105737 | 82 | 228 | 1.0 | 9.0 | 0.00 | 0.00 | 0.00 | 63 | 1018.2 |
| 20260901105228 | 82 | 181 | 6.0 | 9.0 | 0.00 | 0.00 | 0.00 | 61 | 1018.2 |
| 20260901104737 | 80 | 180 | 1.0 | 6.0 | 0.00 | 0.00 | 0.00 | 70 | 1018.2 |
| 20260901104238 | 80 | 97 | 2.0 | 6.0 | 0.00 | 0.00 | 0.00 | 68 | 1018.3 |
| 20260901103737 | 81 | 32 | 3.0 | 6.0 | 0.00 | 0.00 | 0.00 | 68 | 1018.3 |
| 20260901103229 | 80 | 194 | 1.0 | 7.0 | 0.00 | 0.00 | 0.00 | 71 | 1018.3 |
| 20260901102756 | 79 | 133 | 3.0 | 7.0 | 0.00 | 0.00 | 0.00 | 74 | 1018.4 |
| 20260901102232 | 78 | 108 | 2.0 | 5.0 | 0.00 | 0.00 | 0.00 | 73 | 1018.5 |
| 20260901101729 | 78 | 25 | 2.0 | 5.0 | 0.00 | 0.00 | 0.00 | 73 | 1018.4 |
| 20260901101224 | 77 | 30 | 3.0 | 5.0 | 0.00 | 0.00 | 0.00 | 73 | 1018.4 |
| 20260901100735 | 77 | 26 | 2.0 | 5.0 | 0.00 | 0.00 | 0.00 | 73 | 1018.6 |
| 20260901100224 | 78 | 57 | 2.0 | 3.0 | 0.00 | 0.00 | 0.00 | 73 | 1018.6 |
| 20260901095747 | 77 | 82 | 0.0 | 6.0 | 0.00 | 0.00 | 0.00 | 73 | 1018.6 |
| 20260901095238 | 77 | 55 | 3.0 | 6.0 | 0.00 | 0.00 | 0.00 | 73 | 1018.6 |
| 20260901094740 | 77 | 109 | 1.0 | 8.0 | 0.00 | 0.00 | 0.00 | 74 | 1018.6 |
| 20260901094237 | 78 | 91 | 5.0 | 8.0 | 0.00 | 0.00 | 0.00 | 73 | 1018.7 |
| 20260901093802 | 78 | 131 | 0.0 | 7.0 | 0.00 | 0.00 | 0.00 | 72 | 1018.6 |
| 20260901093252 | 78 | 113 | 4.0 | 10.0 | 0.00 | 0.00 | 0.00 | 73 | 1018.6 |
| 20260901092800 | 78 | 138 | 6.0 | 10.0 | 0.00 | 0.00 | 0.00 | 74 | 1018.6 |
| 20260901092239 | 77 | 150 | 7.0 | 12.0 | 0.00 | 0.00 | 0.00 | 73 | 1018.6 |
| 20260901091745 | 77 | 153 | 6.0 | 14.0 | 0.00 | 0.00 | 0.00 | 74 | 1018.7 |
| 20260901091234 | 76 | 138 | 3.0 | 9.0 | 0.00 | 0.00 | 0.00 | 74 | 1018.6 |
| 20260901090731 | 76 | 360 | 4.0 | 10.0 | 0.00 | 0.00 | 0.00 | 74 | 1018.6 |
| 20260901090239 | 77 | 115 | 5.0 | 10.0 | 0.00 | 0.00 | 0.00 | 73 | 1018.5 |
| 20260901085737 | 76 | 53 | 2.0 | 4.0 | 0.00 | 0.00 | 0.00 | 72 | 1018.5 |
| 20260901085229 | 76 | 76 | 3.0 | 8.0 | 0.00 | 0.00 | 0.00 | 70 | 1018.5 |
| 20260901084738 | 75 | 23 | 3.0 | 8.0 | 0.00 | 0.00 | 0.00 | 68 | 1018.4 |
| 20260901084228 | 75 | 56 | 1.0 | 3.0 | 0.00 | 0.00 | 0.00 | 67 | 1018.5 |
| 20260901083808 | 75 | 13 | 1.0 | 4.0 | 0.00 | 0.00 | 0.00 | 68 | 1018.5 |
| 20260901083240 | 75 | 22 | 1.0 | 4.0 | 0.00 | 0.00 | 0.00 | 67 | 1018.5 |
| 20260901082744 | 75 | 42 | 1.0 | 8.0 | 0.00 | 0.00 | 0.00 | 66 | 1018.3 |
| 20260901082242 | 75 | 26 | 5.0 | 8.0 | 0.00 | 0.00 | 0.00 | 65 | 1018.4 |
| 20260901081755 | 75 | 340 | 4.0 | 10.0 | 0.00 | 0.00 | 0.00 | 66 | 1018.3 |
| 20260901081235 | 75 | 355 | 5.0 | 10.0 | 0.00 | 0.00 | 0.00 | 65 | 1018.3 |
| 20260901080741 | 75 | 36 | 3.0 | 8.0 | 0.00 | 0.00 | 0.00 | 63 | 1018.3 |
| 20260901080241 | 75 | 346 | 1.0 | 4.0 | 0.00 | 0.00 | 0.00 | 67 | 1018.2 |
| 20260901075740 | 74 | 27 | 1.0 | 3.0 | 0.00 | 0.00 | 0.00 | 65 | 1018.2 |
| 20260901075252 | 74 | 360 | 1.0 | 4.0 | 0.00 | 0.00 | 0.00 | 66 | 1018.1 |
| 20260901074804 | 74 | 348 | 2.0 | 6.0 | 0.00 | 0.00 | 0.00 | 66 | 1018.1 |
| 20260901074306 | 74 | 27 | 3.0 | 5.0 | 0.00 | 0.00 | 0.00 | 67 | 1018.1 |
| 20260901073726 | 73 | 10 | 3.0 | 4.0 | 0.00 | 0.00 | 0.00 | 69 | 1017.9 |
| 20260901073242 | 73 | 12 | 2.0 | 5.0 | 0.00 | 0.00 | 0.00 | 67 | 1018.0 |
| 20260901072741 | 73 | 13 | 3.0 | 5.0 | 0.00 | 0.00 | 0.00 | 68 | 1017.9 |
| 20260901072225 | 73 | 42 | 2.0 | 5.0 | 0.00 | 0.00 | 0.00 | 68 | 1017.9 |
| 20260901071801 | 73 | 28 | 2.0 | 5.0 | 0.00 | 0.00 | 0.00 | 67 | 1017.9 |
| 20260901071249 | 73 | 32 | 3.0 | 5.0 | 0.00 | 0.00 | 0.00 | 66 | 1017.8 |
| 20260901070739 | 74 | 33 | 2.0 | 5.0 | 0.00 | 0.00 | 0.00 | 65 | 1018.0 |
| 20260901070229 | 74 | 67 | 2.0 | 5.0 | 0.00 | 0.00 | 0.00 | 64 | 1017.9 |
| 20260901065748 | 74 | 43 | 2.0 | 3.0 | 0.00 | 0.00 | 0.00 | 64 | 1017.9 |
| 20260901065240 | 74 | 260 | 0.0 | 3.0 | 0.00 | 0.00 | 0.00 | 65 | 1017.9 |
| 20260901064740 | 73 | 68 | 2.0 | 6.0 | 0.00 | 0.00 | 0.00 | 64 | 1017.7 |
| 20260901064247 | 73 | 98 | 2.0 | 6.0 | 0.00 | 0.00 | 0.00 | 63 | 1017.7 |
| 20260901063734 | 73 | 355 | 2.0 | 6.0 | 0.00 | 0.00 | 0.00 | 63 | 1017.7 |
| 20260901063226 | 72 | 24 | 1.0 | 5.0 | 0.00 | 0.00 | 0.00 | 63 | 1017.7 |
| 20260901062724 | 72 | 85 | 2.0 | 5.0 | 0.00 | 0.00 | 0.00 | 60 | 1017.6 |
| 20260901062240 | 71 | 25 | 3.0 | 6.0 | 0.00 | 0.00 | 0.00 | 61 | 1017.6 |
| 20260901061740 | 71 | 21 | 3.0 | 6.0 | 0.00 | 0.00 | 0.00 | 66 | 1017.4 |
| 20260901061251 | 71 | 21 | 1.0 | 4.0 | 0.00 | 0.00 | 0.00 | 65 | 1017.4 |
| 20260901060741 | 71 | 5 | 1.0 | 2.0 | 0.00 | 0.00 | 0.00 | 67 | 1017.3 |
| 20260901060253 | 70 | 5 | 0.0 | 6.0 | 0.00 | 0.00 | 0.00 | 63 | 1017.1 |
| 20260901055742 | 70 | 5 | 3.0 | 6.0 | 0.00 | 0.00 | 0.00 | 62 | 1017.0 |
| 20260901055241 | 69 | 22 | 3.0 | 8.0 | 0.00 | 0.00 | 0.00 | 63 | 1017.0 |
| 20260901054748 | 68 | 38 | 3.0 | 8.0 | 0.00 | 0.00 | 0.00 | 62 | 1017.0 |
| 20260901054236 | 67 | 360 | 3.0 | 5.0 | 0.00 | 0.00 | 0.00 | 66 | 1016.9 |
| 20260901053731 | 66 | 360 | 4.0 | 6.0 | 0.00 | 0.00 | 0.00 | 67 | 1016.9 |
| 20260901053302 | 65 | 9 | 4.0 | 6.0 | 0.00 | 0.00 | 0.00 | 68 | 1016.7 |
| 20260901052724 | 64 | 36 | 3.0 | 5.0 | 0.00 | 0.00 | 0.00 | 69 | 1016.7 |
| 20260901052250 | 64 | 30 | 3.0 | 5.0 | 0.00 | 0.00 | 0.00 | 70 | 1016.7 |
| 20260901051800 | 64 | 17 | 3.0 | 4.0 | 0.00 | 0.00 | 0.00 | 71 | 1016.6 |
| 20260901051248 | 64 | 19 | 2.0 | 5.0 | 0.00 | 0.00 | 0.00 | 71 | 1016.6 |
| 20260901050739 | 63 | 14 | 3.0 | 5.0 | 0.00 | 0.00 | 0.00 | 71 | 1016.5 |
| 20260901050234 | 63 | 18 | 3.0 | 5.0 | 0.00 | 0.00 | 0.00 | 73 | 1016.5 |
| 20260901045731 | 63 | 5 | 3.0 | 5.0 | 0.00 | 0.00 | 0.00 | 72 | 1016.4 |
| 20260901045229 | 63 | 18 | 1.0 | 3.0 | 0.00 | 0.00 | 0.00 | 72 | 1016.3 |
| 20260901044725 | 63 | 17 | 1.0 | 2.0 | 0.00 | 0.00 | 0.00 | 71 | 1016.3 |
| 20260901044301 | 64 | 17 | 1.0 | 4.0 | 0.00 | 0.00 | 0.00 | 70 | 1016.1 |
| 20260901043740 | 64 | 27 | 3.0 | 5.0 | 0.00 | 0.00 | 0.00 | 69 | 1016.1 |
| 20260901043244 | 64 | 21 | 2.0 | 5.0 | 0.00 | 0.00 | 0.00 | 70 | 1016.1 |
| 20260901042725 | 65 | 348 | 1.0 | 4.0 | 0.00 | 0.00 | 0.00 | 68 | 1016.0 |
| 20260901042240 | 66 | 340 | 0.0 | 2.0 | 0.00 | 0.00 | 0.00 | 67 | 1015.8 |
| 20260901041748 | 66 | 340 | 1.0 | 3.0 | 0.00 | 0.00 | 0.00 | 66 | 1015.9 |
| 20260901041239 | 68 | 337 | 1.0 | 3.0 | 0.00 | 0.00 | 0.00 | 62 | 1015.8 |
| 20260901040751 | 68 | 30 | 0.0 | 4.0 | 0.00 | 0.00 | 0.00 | 61 | 1015.7 |
| 20260901040238 | 69 | 30 | 2.0 | 5.0 | 0.00 | 0.00 | 0.00 | 58 | 1015.8 |
| 20260901035734 | 69 | 18 | 4.0 | 5.0 | 0.00 | 0.00 | 0.00 | 57 | 1015.6 |
| 20260901035237 | 70 | 24 | 2.0 | 5.0 | 0.00 | 0.00 | 0.00 | 56 | 1015.5 |
| 20260901034752 | 70 | 32 | 3.0 | 5.0 | 0.00 | 0.00 | 0.00 | 55 | 1015.4 |
| 20260901034241 | 71 | 49 | 1.0 | 11.0 | 0.00 | 0.00 | 0.00 | 55 | 1015.3 |
| 20260901033752 | 71 | 22 | 5.0 | 11.0 | 0.00 | 0.00 | 0.00 | 53 | 1015.3 |
| 20260901033257 | 71 | 349 | 5.0 | 10.0 | 0.00 | 0.00 | 0.00 | 53 | 1015.3 |
| 20260901032725 | 72 | 47 | 5.0 | 13.0 | 0.00 | 0.00 | 0.00 | 52 | 1015.2 |
| 20260901032248 | 72 | 63 | 8.0 | 13.0 | 0.00 | 0.00 | 0.00 | 53 | 1015.1 |
| 20260901031743 | 71 | 12 | 7.0 | 12.0 | 0.00 | 0.00 | 0.00 | 53 | 1014.9 |
| 20260901031311 | 71 | 341 | 7.0 | 15.0 | 0.00 | 0.00 | 0.00 | 53 | 1014.8 |
| 20260901030740 | 71 | 5 | 10.0 | 15.0 | 0.00 | 0.00 | 0.00 | 54 | 1015.0 |
| 20260901030240 | 72 | 32 | 8.0 | 13.0 | 0.00 | 0.00 | 0.00 | 54 | 1015.0 |
| 20260901025745 | 72 | 63 | 9.0 | 15.0 | 0.00 | 0.00 | 0.00 | 53 | 1015.0 |
| 20260901025226 | 71 | 17 | 9.0 | 15.0 | 0.00 | 0.00 | 0.00 | 55 | 1015.0 |
| 20260901024739 | 70 | 35 | 9.0 | 15.0 | 0.00 | 0.00 | 0.00 | 57 | 1015.0 |
| 20260901024248 | 68 | 44 | 8.0 | 14.0 | 0.00 | 0.00 | 0.00 | 61 | 1015.1 |
| 20260901023740 | 65 | 30 | 5.0 | 11.0 | 0.00 | 0.00 | 0.00 | 68 | 1015.0 |
| 20260901023239 | 65 | 355 | 5.0 | 11.0 | 0.00 | 0.00 | 0.00 | 73 | 1015.0 |
| 20260901022749 | 64 | 355 | 4.0 | 10.0 | 0.00 | 0.00 | 0.00 | 75 | 1015.1 |
| 20260901022240 | 64 | 27 | 0.0 | 4.0 | 0.00 | 0.00 | 0.00 | 76 | 1015.2 |
| 20260901021754 | 65 | 61 | 0.0 | 3.0 | 0.00 | 0.00 | 0.00 | 76 | 1015.3 |
| 20260901021258 | 65 | 39 | 0.0 | 2.0 | 0.00 | 0.00 | 0.00 | 74 | 1015.2 |
| 20260901020744 | 65 | 290 | 1.0 | 3.0 | 0.00 | 0.00 | 0.00 | 73 | 1015.1 |
| 20260901020248 | 66 | 290 | 1.0 | 3.0 | 0.00 | 0.00 | 0.00 | 72 | 1015.0 |
| 20260901015802 | 66 | 144 | 1.0 | 3.0 | 0.00 | 0.00 | 0.00 | 73 | 1015.0 |
| 20260901015246 | 67 | 232 | 0.0 | 2.0 | 0.00 | 0.00 | 0.00 | 71 | 1015.2 |
| 20260901014733 | 68 | 232 | 1.0 | 2.0 | 0.00 | 0.00 | 0.00 | 69 | 1015.2 |
| 20260901014226 | 69 | 232 | 1.0 | 3.0 | 0.00 | 0.00 | 0.00 | 66 | 1015.0 |
| 20260901013748 | 71 | 291 | 2.0 | 3.0 | 0.00 | 0.00 | 0.00 | 65 | 1015.1 |
| 20260901013238 | 72 | 17 | 1.0 | 5.0 | 0.00 | 0.00 | 0.00 | 60 | 1015.1 |
| 20260901012743 | 72 | 347 | 3.0 | 10.0 | 0.00 | 0.00 | 0.00 | 56 | 1015.1 |
| 20260901012224 | 73 | 355 | 4.0 | 10.0 | 0.00 | 0.00 | 0.00 | 54 | 1015.0 |
| 20260901011742 | 73 | 27 | 6.0 | 9.0 | 0.00 | 0.00 | 0.00 | 55 | 1015.2 |
| 20260901011248 | 72 | 5 | 5.0 | 12.0 | 0.00 | 0.00 | 0.00 | 55 | 1015.0 |
| 20260901010734 | 72 | 22 | 6.0 | 12.0 | 0.00 | 0.00 | 0.00 | 56 | 1015.0 |
| 20260901010234 | 72 | 14 | 5.0 | 10.0 | 0.00 | 0.00 | 0.00 | 58 | 1015.0 |
| 20260901005725 | 72 | 355 | 6.0 | 9.0 | 0.00 | 0.00 | 0.00 | 60 | 1015.0 |